Broken Bow, NE

1:56 AM CDT on May 27, 2017 (GMT -0500)
Broken Bow Municipal

Weather History for KBBW - October, 2012

Change the Weather History Date:

Saturday, October 27, 2012

  Actual Average Record
Temperature  
Mean Temperature 33 °F 45 °F  
Max Temperature 46 °F 59 °F 87 °F (1915)
Min Temperature 20 °F 32 °F 2 °F (1997)
Degree Days  
Heating Degree Days 32 20  
Month to date heating degree days 486 405  
Cooling Degree Days 0 0  
Month to date cooling degree days 0 2  
Year to date cooling degree days 1077 764  
Moisture  
Dew Point 25 °F    
Average Humidity 75    
Maximum Humidity 100    
Minimum Humidity 49    
Precipitation  
Precipitation 0.00 in 0.04 in 2.73 in (1897)
Sea Level Pressure  
Sea Level Pressure 30.28 in    
Wind  
Wind Speed 9 mph (South)    
Max Wind Speed 23 mph    
Max Gust Speed 30 mph    
Visibility 10 miles    
Events      
T = Trace of Precipitation, MM = Missing Value Source: NWS Daily Summary

Daily Weather History Graph

Daily Weather History Graph

Search for Another Location

Airport or City:

Trip Planner

Search our weather history database for the weather conditions in past years. The results will help you decide how hot, cold, wet, or windy it might be!

Date:

Astronomy

Oct. 27, 2012 Rise Set
Actual Time 8:04 AM CDT 6:39 PM CDT
Civil Twilight 7:36 AM CDT 7:07 PM CDT
Nautical Twilight 7:03 AM CDT 7:40 PM CDT
Astronomical Twilight 6:31 AM CDT 8:12 PM CDT
Moon 5:26 PM CDT 6:00 AM CDT
Length of Visible Light 11h 31m
Length of Day
10h 34m
Waxing Gibbous, 96% of the Moon is Illuminated
Oct 27
Waxing Gibbous
Oct 29
Full
Nov 6
Last Quarter
Nov 13
New
Nov 20
First Quarter

Hourly Weather History & Observations

Time (CDT) Temp. Windchill Dew Point Humidity Pressure Visibility Wind Dir Wind Speed Gust Speed Precip Events Conditions
12:53 AM 23.0 °F - 21.0 °F 92% 30.41 in 10.0 mi Calm Calm - N/A   Clear
1:53 AM 21.9 °F - 21.0 °F 96% 30.40 in 8.0 mi Calm Calm - N/A   Clear
2:53 AM 21.0 °F - 19.0 °F 92% 30.38 in 9.0 mi Calm Calm - N/A   Clear
3:53 AM 23.0 °F - 19.9 °F 88% 30.37 in 7.0 mi Calm Calm - N/A   Partly Cloudy
4:53 AM 28.0 °F 21.7 °F 24.1 °F 85% 30.35 in 10.0 mi SSW 5.8 mph - N/A   Overcast
5:53 AM 28.0 °F 19.3 °F 24.1 °F 85% 30.36 in 10.0 mi SSW 9.2 mph - N/A   Overcast
6:53 AM 26.1 °F 19.4 °F 23.0 °F 88% 30.35 in 10.0 mi SSE 5.8 mph - N/A   Clear
7:53 AM 27.0 °F 18.0 °F 24.1 °F 89% 30.32 in 10.0 mi South 9.2 mph - N/A   Overcast
8:53 AM 28.9 °F 21.9 °F 24.1 °F 82% 30.33 in 10.0 mi SSE 6.9 mph - N/A   Partly Cloudy
9:53 AM 30.0 °F 21.1 °F 25.0 °F 82% 30.33 in 10.0 mi South 10.4 mph - N/A   Overcast
10:53 AM 33.1 °F 22.2 °F 26.1 °F 75% 30.32 in 10.0 mi SSW 17.3 mph 26.5 mph N/A   Clear
11:53 AM 36.0 °F 25.3 °F 26.1 °F 67% 30.31 in 10.0 mi South 19.6 mph 27.6 mph N/A   Scattered Clouds
12:53 PM 37.9 °F 28.2 °F 26.1 °F 62% 30.28 in 10.0 mi South 18.4 mph 28.8 mph N/A   Mostly Cloudy
1:53 PM 39.9 °F 30.2 °F 26.1 °F 58% 30.23 in 10.0 mi South 20.7 mph 28.8 mph N/A   Overcast
2:53 PM 42.1 °F 33.6 °F 27.0 °F 55% 30.21 in 10.0 mi South 18.4 mph 27.6 mph N/A   Overcast
3:53 PM 44.1 °F 36.5 °F 27.0 °F 51% 30.19 in 10.0 mi SSW 17.3 mph 26.5 mph N/A   Mostly Cloudy
4:53 PM 45.0 °F 38.9 °F 27.0 °F 49% 30.17 in 10.0 mi South 12.7 mph 25.3 mph N/A   Mostly Cloudy
5:53 PM 44.1 °F 39.0 °F 28.0 °F 53% 30.17 in 10.0 mi South 9.2 mph - N/A   Overcast
6:53 PM 39.9 °F 34.5 °F 27.0 °F 60% 30.19 in 10.0 mi South 8.1 mph - N/A   Clear
7:53 PM 37.0 °F 31.6 °F 26.1 °F 65% 30.21 in 10.0 mi SE 6.9 mph - N/A   Clear
8:53 PM 35.1 °F 30.1 °F 25.0 °F 67% 30.22 in 10.0 mi SSE 5.8 mph - N/A   Clear
9:53 PM 34.0 °F 27.2 °F 25.0 °F 70% 30.24 in 10.0 mi South 8.1 mph - N/A   Clear
10:53 PM 32.0 °F 27.5 °F 24.8 °F 75% 30.18 in 10.0 mi WSW 4.6 mph - N/A   Clear
11:53 PM 30.9 °F 26.2 °F 24.1 °F 76% 30.25 in 10.0 mi SW 4.6 mph - N/A   Clear